Home > Time Zones > World Clock > Weather > Serbia > Niš > Past weeks

Flag for Serbia Weather past 2 weeks in Niš, Serbia

Now
79 °F

Passing clouds.


Feels Like: 79 °F
Forecast: 56 / 83 °F
Wind: 10 mph from Northwest

Location: Nis Airport

Current Time: Jul 1, 2015 at 5:41:28 PM

Latest Report: Jul 1, 2015 at 5:00 PM


Visibility: N/A

Pressure: 30.12 "Hg

Humidity: 45%

Dew point: 55 °F

Location of NišLocation

Historic Weather in Niš — Graph

°F

Niš temperature yesterday

Maximum temperature yesterday: 77 °F (at 5:00 PM)
Minimum temperature yesterday: 61 °F (at 6:00 AM)
Average temperature yesterday: 66 °F

Past Weeks' High & Low Weather Summary

 TemperatureHumidityPressure
High82 °F (Jun 23, 3:30 PM)100% (Jun 19, 3:30 AM)30.21 "Hg (Jun 19, 3:30 AM)
Low50 °F (Jun 23, 4:30 AM)28% (Jun 23, 3:30 PM)29.80 "Hg (Jun 19, 6:00 PM)
Average64 °F73%30.00 "Hg
* Reported Jun 16 4:00 PM — Jul 1 4:30 PM, Niš, Weather by CustomWeather, © 2015

Note: Actual official high and low records may vary slightly from our data, if they occured in-between our weather recording intervals... More about our weather records

Advertising

Niš weather history for previous 24 hours

 ConditionsComfort  
Time TempWeatherWind HumidityBarometerVisibility
4:30 PM
Wed, Jul 1
79 °FPassing clouds.9 mph48%30.15 "HgN/A
4:00 PM79 °FPassing clouds.12 mph48%30.15 "HgN/A
3:30 PM79 °FPassing clouds.13 mph45%30.12 "HgN/A
3:00 PM79 °FPassing clouds.12 mph45%30.12 "HgN/A
2:30 PM79 °FPassing clouds.10 mph45%30.15 "HgN/A
2:00 PM75 °FScattered clouds.10 mph50%30.15 "HgN/A
1:30 PM77 °FThunderstorms. Scattered clouds.9 mph51%30.15 "HgN/A
1:00 PM75 °FThunderstorms. Scattered clouds.7 mph54%30.15 "HgN/A
12:30 PM75 °FThunderstorms. Scattered clouds.8 mph54%30.15 "HgN/A
12:00 PM77 °FThunderstorms. Passing clouds.1 mph54%30.15 "HgN/A
11:30 AM73 °FThunderstorms. Passing clouds.3 mph65%30.18 "HgN/A
11:00 AM73 °FPassing clouds.2 mph61%30.18 "HgN/A
10:30 AM72 °FPassing clouds.2 mph69%30.18 "HgN/A
10:00 AM73 °FPassing clouds.5 mph61%30.18 "HgN/A
9:30 AM70 °FPassing clouds.2 mph73%30.18 "HgN/A
9:00 AM68 °FPassing clouds.1 mph78%30.18 "HgN/A
8:30 AM68 °FPassing clouds.1 mph78%30.18 "HgN/A
8:00 AM66 °FPassing clouds.1 mph78%30.15 "HgN/A
7:30 AM64 °FPassing clouds.No wind88%30.15 "Hg5 mi
7:00 AM64 °FPassing clouds.1 mph88%30.15 "Hg5 mi
6:30 AM63 °FPassing clouds.No wind94%30.15 "Hg5 mi
6:00 AM61 °FClear.No wind94%30.15 "Hg5 mi
5:30 AM61 °FClear.1 mph88%30.15 "Hg10 mi
5:00 AM63 °FClear.2 mph88%30.15 "Hg10 mi
4:30 AM63 °FClear.2 mph88%30.12 "Hg10 mi
4:00 AM63 °FClear.3 mph88%30.12 "Hg10 mi
3:30 AM63 °FClear.3 mph88%30.12 "Hg10 mi
3:00 AM63 °FClear.2 mph88%30.12 "Hg10 mi
2:30 AM63 °FClear.5 mph88%30.15 "Hg10 mi
1:30 AM63 °FClear.5 mph88%30.15 "Hg10 mi
1:00 AM63 °FClear.3 mph88%30.15 "Hg10 mi
12:30 AM63 °FClear.3 mph88%30.15 "Hg10 mi
12:00 AM64 °FClear.3 mph83%30.15 "Hg10 mi
11:30 PM
Tue, Jun 30
64 °FClear.3 mph83%30.15 "Hg10 mi
11:00 PM64 °FClear.1 mph88%30.15 "Hg10 mi
10:30 PM64 °FClear.2 mph88%30.12 "Hg10 mi
10:00 PM64 °FClear.1 mph88%30.12 "Hg10 mi
9:30 PM66 °FPassing clouds.2 mph83%30.12 "HgN/A
9:00 PM68 °FPartly sunny.1 mph78%30.12 "HgN/A
8:30 PM68 °FBroken clouds.1 mph78%30.09 "HgN/A
8:00 PM68 °FBroken clouds.5 mph78%30.09 "HgN/A
7:00 PM70 °FBroken clouds.9 mph73%30.09 "HgN/A
6:30 PM70 °FBroken clouds.10 mph69%30.09 "HgN/A
6:00 PM75 °FScattered clouds.6 mph54%30.09 "HgN/A
5:00 PM77 °FScattered clouds.10 mph51%30.07 "HgN/A
Weather by CustomWeather, © 2015

See weather overviewHow to use our weather pages